Weather History for Windom, MN

Change the Weather History Date:

Sunday, December 16, 2012

  Actual Average Record
Temperature  
Mean Temperature 20 °F -  
Max Temperature 26 °F 26 °F 59 °F (1962)
Min Temperature 14 °F 8 °F -17 °F (1951)
Degree Days  
Heating Degree Days 45    
Moisture  
Dew Point 17 °F    
Average Humidity 93    
Maximum Humidity 100    
Minimum Humidity 86    
Precipitation  
Precipitation 0.00 in - - ()
Sea Level Pressure  
Sea Level Pressure 29.73 in    
Wind  
Wind Speed 9 mph (NW)    
Max Wind Speed 16 mph    
Max Gust Speed 22 mph    
Visibility 5 miles    
Events Fog , Snow    
Averages and records for this station are not official NWS values.
T = Trace of Precipitation, MM = Missing Value Source: NWS Daily Summary

Daily Weather History Graph

Daily Weather History Graph

Search for Another Location

Airport:

Trip Planner

Search our weather history database for the weather conditions in past years. The results will help you decide how hot, cold, wet, or windy it might be!

Date:

Astronomy

Dec. 16, 2012 Rise Set
Actual Time 7:49 AM CST 4:43 PM CST
Civil Twilight 7:15 AM CST 5:16 PM CST
Nautical Twilight 6:39 AM CST 5:53 PM CST
Astronomical Twilight 6:04 AM CST 6:28 PM CST
Moon 10:17 AM CST (12/16) 9:05 PM CST (12/16)
Length of Visible Light 10h 00m
Length of Day
8h 54m
Waxing Crescent, 16% of the Moon is Illuminated
Dec 16
Waxing Crescent
Dec 19
First Quarter
Dec 28
Full
Jan 4
Last Quarter
Jan 11
New

Hourly Weather History & Observations

Time (CST) Temp. Windchill Dew Point Humidity Pressure Visibility Wind Dir Wind Speed Gust Speed Precip Events Conditions
12:12 AM 26.6 °F 16.8 °F 24.8 °F 93% 29.62 in 10.0 mi NW 10.4 mph 19.6 mph N/A   Overcast
12:33 AM 24.8 °F 13.4 °F 21.2 °F 86% 29.62 in 10.0 mi WNW 12.7 mph 21.9 mph N/A   Overcast
12:52 AM 23.0 °F 11.1 °F 21.2 °F 93% 29.63 in 10.0 mi WNW 12.7 mph 20.7 mph N/A   Overcast
1:13 AM 21.2 °F 8.9 °F 19.4 °F 93% 29.63 in 10.0 mi WNW 12.7 mph 19.6 mph N/A   Mostly Cloudy
1:53 AM 19.4 °F 6.6 °F 17.6 °F 93% 29.65 in 10.0 mi WNW 12.7 mph 17.3 mph N/A   Scattered Clouds
2:13 AM 19.4 °F 7.2 °F 17.6 °F 93% 29.66 in 10.0 mi NW 11.5 mph 17.3 mph N/A   Scattered Clouds
2:53 AM 19.4 °F 7.2 °F 15.8 °F 86% 29.68 in 10.0 mi NW 11.5 mph - N/A   Clear
3:13 AM 17.6 °F 8.2 °F 15.8 °F 93% 29.68 in 10.0 mi NW 6.9 mph - N/A   Clear
3:32 AM 17.6 °F 8.2 °F 15.8 °F 93% 29.68 in 10.0 mi WNW 6.9 mph - N/A   Clear
3:53 AM 17.6 °F 6.4 °F 15.8 °F 93% 29.68 in 10.0 mi WNW 9.2 mph - N/A   Scattered Clouds
4:13 AM 17.6 °F 6.4 °F 14.0 °F 86% 29.68 in 10.0 mi WNW 9.2 mph - N/A   Scattered Clouds
4:32 AM 15.8 °F 2.1 °F 14.0 °F 93% 29.68 in 10.0 mi WNW 12.7 mph 16.1 mph N/A   Mostly Cloudy
5:13 AM 15.8 °F 3.4 °F 12.2 °F 86% 29.70 in 5.0 mi NW 10.4 mph 19.6 mph N/A   Overcast
5:53 AM 14.0 °F -0.2 °F 12.2 °F 93% 29.70 in 4.0 mi NW 12.7 mph - N/A   Overcast
6:13 AM 14.0 °F -0.2 °F 12.2 °F 93% 29.70 in 3.0 mi NW 12.7 mph 17.3 mph N/A   Overcast
6:32 AM 15.8 °F 7.2 °F 12.2 °F 86% 29.72 in 3.0 mi NW 5.8 mph - N/A Snow Light Snow
6:53 AM 15.8 °F 4.2 °F 12.2 °F 86% 29.71 in 4.0 mi NW 9.2 mph - N/A Snow Light Snow
7:13 AM 15.8 °F 2.7 °F 12.2 °F 86% 29.71 in 4.0 mi NW 11.5 mph 17.3 mph N/A Snow Light Snow
7:32 AM 15.8 °F 6.1 °F 12.2 °F 86% 29.72 in 5.0 mi NW 6.9 mph 17.3 mph N/A Snow Light Snow
7:53 AM 15.8 °F 7.2 °F 12.2 °F 86% 29.72 in 3.0 mi NW 5.8 mph - N/A Snow Light Snow
8:13 AM 15.8 °F 6.1 °F 12.2 °F 86% 29.72 in 2.0 mi NW 6.9 mph - N/A Snow Light Snow
8:32 AM 15.8 °F 2.7 °F 14.0 °F 93% 29.72 in 3.0 mi NW 11.5 mph - N/A Snow Light Snow
8:53 AM 15.8 °F 0.3 °F 14.0 °F 93% 29.72 in 2.5 mi NW 16.1 mph - N/A Snow Light Snow
9:12 AM 17.6 °F 5.7 °F 15.8 °F 93% 29.73 in 1.8 mi NW 10.4 mph - N/A Snow Light Snow
9:32 AM 17.6 °F 5.7 °F 15.8 °F 93% 29.73 in 2.5 mi NW 10.4 mph 18.4 mph N/A   Overcast
9:53 AM 17.6 °F 5.0 °F 15.8 °F 93% 29.74 in 4.0 mi NW 11.5 mph - N/A   Overcast
10:12 AM 17.6 °F 6.4 °F 15.8 °F 93% 29.75 in 4.0 mi NW 9.2 mph 18.4 mph N/A   Overcast
10:32 AM 17.6 °F 6.4 °F 15.8 °F 93% 29.76 in 3.0 mi NW 9.2 mph - N/A   Overcast
10:53 AM 17.6 °F 7.3 °F 15.8 °F 93% 29.76 in 2.5 mi NW 8.1 mph - N/A   Overcast
11:32 AM 19.4 °F 7.9 °F 15.8 °F 86% 29.75 in 4.0 mi NW 10.4 mph - N/A   Overcast
11:53 AM 19.4 °F 8.6 °F 15.8 °F 86% 29.75 in 3.0 mi NW 9.2 mph - N/A   Mostly Cloudy
12:12 PM 19.4 °F 12.8 °F 15.8 °F 86% 29.75 in 5.0 mi NW 4.6 mph - N/A   Mostly Cloudy
12:32 PM 19.4 °F 9.5 °F 15.8 °F 86% 29.74 in 10.0 mi NW 8.1 mph - N/A   Overcast
12:53 PM 19.4 °F 7.9 °F 15.8 °F 86% 29.73 in 5.0 mi NW 10.4 mph - N/A   Overcast
1:12 PM 19.4 °F 8.6 °F 17.6 °F 93% 29.73 in 3.0 mi NW 9.2 mph - N/A   Overcast
1:32 PM 19.4 °F 7.9 °F 17.6 °F 93% 29.73 in 5.0 mi NW 10.4 mph - N/A   Mostly Cloudy
1:53 PM 19.4 °F 9.5 °F 17.6 °F 93% 29.73 in 7.0 mi NW 8.1 mph - N/A   Mostly Cloudy
2:12 PM 19.4 °F 7.9 °F 17.6 °F 93% 29.72 in 7.0 mi NW 10.4 mph - N/A   Overcast
2:32 PM 19.4 °F 9.5 °F 17.6 °F 93% 29.72 in 7.0 mi NW 8.1 mph - N/A   Overcast
2:53 PM 19.4 °F 8.6 °F 17.6 °F 93% 29.72 in 3.0 mi NW 9.2 mph - N/A   Overcast
3:12 PM 19.4 °F 8.6 °F 17.6 °F 93% 29.72 in 5.0 mi NNW 9.2 mph - N/A   Mostly Cloudy
3:32 PM 19.4 °F 7.9 °F 17.6 °F 93% 29.72 in 4.0 mi NNW 10.4 mph - N/A   Overcast
3:53 PM 19.4 °F 6.6 °F 17.6 °F 93% 29.73 in 10.0 mi NW 12.7 mph - N/A   Overcast
4:12 PM 19.4 °F 7.2 °F 17.6 °F 93% 29.73 in 4.0 mi NNW 11.5 mph - N/A   Overcast
4:32 PM 19.4 °F 9.5 °F 17.6 °F 93% 29.74 in 1.8 mi NNW 8.1 mph - N/A Snow Light Snow
4:53 PM 19.4 °F 11.5 °F 19.4 °F 100% 29.75 in 4.0 mi NNW 5.8 mph - N/A Snow Light Snow
5:12 PM 19.4 °F 9.5 °F 19.4 °F 100% 29.75 in 10.0 mi NNW 8.1 mph - N/A   Overcast
5:53 PM 19.4 °F 11.5 °F 19.4 °F 100% 29.76 in 5.0 mi NNW 5.8 mph - N/A   Overcast
6:12 PM 19.4 °F 11.5 °F 19.4 °F 100% 29.76 in 10.0 mi NNW 5.8 mph - N/A   Overcast
6:53 PM 19.4 °F 12.8 °F 19.4 °F 100% 29.77 in 7.0 mi NW 4.6 mph - N/A   Overcast
7:12 PM 19.4 °F 11.5 °F 19.4 °F 100% 29.77 in 7.0 mi NNW 5.8 mph - N/A   Overcast
7:32 PM 19.4 °F 14.3 °F 19.4 °F 100% 29.77 in 5.0 mi NW 3.5 mph - N/A   Overcast
7:53 PM 19.4 °F 11.5 °F 19.4 °F 100% 29.77 in 5.0 mi NNW 5.8 mph - N/A   Overcast
8:12 PM 19.4 °F 14.3 °F 19.4 °F 100% 29.78 in 3.0 mi NNW 3.5 mph - N/A   Overcast
8:32 PM 19.4 °F - 19.4 °F 100% 29.78 in 2.0 mi Calm Calm - N/A   Overcast
8:53 PM 19.4 °F 11.5 °F 19.4 °F 100% 29.79 in 0.8 mi NW 5.8 mph - N/A   Overcast
9:12 PM 19.4 °F - 19.4 °F 100% 29.79 in 1.2 mi Calm Calm - N/A   Overcast
9:32 PM 19.4 °F - 19.4 °F 100% 29.79 in 0.8 mi Calm Calm - N/A   Overcast
9:53 PM 19.4 °F 14.3 °F 17.6 °F 93% 29.78 in 1.0 mi NW 3.5 mph - N/A   Overcast
10:12 PM 19.4 °F - 17.6 °F 93% 29.78 in 0.5 mi Calm Calm - N/A Fog Light Freezing Fog
10:33 PM 19.4 °F - 17.6 °F 93% 29.78 in 0.5 mi Calm Calm - N/A Fog Light Freezing Fog
10:52 PM 19.4 °F - 17.6 °F 93% 29.79 in 0.2 mi Calm Calm - N/A Fog Light Freezing Fog
11:13 PM 19.4 °F - 17.6 °F 93% 29.79 in 0.5 mi Calm Calm - N/A Fog Light Freezing Fog
11:33 PM 19.4 °F - 17.6 °F 93% 29.78 in 0.5 mi Calm Calm - N/A Fog Light Freezing Fog
11:52 PM 19.4 °F - 17.6 °F 93% 29.77 in 0.8 mi Calm Calm - N/A   Overcast